Orbital Elements at Epoch 2459200.5 (2020-Dec-17.0) TDB
Reference: JPL 32 (heliocentric ecliptic J2000)
Element | Value | Uncertainty (1-sigma) | Units |
e | .09865366843316087 | 2.9045e-08 | |
a | 2.27394889567969 | 6.7488e-09 | au |
q | 2.049615495291353 | 6.5783e-08 | au |
i | 4.973961275281567 | 3.2054e-06 | deg |
node | 96.50084579090031 | 4.1579e-05 | deg |
peri | 205.0850995988447 | 4.5804e-05 | deg |
M | 34.16822070470595 | 1.8894e-05 | deg |
tp | 2459081.625325683652 (2020-Aug-20.12532568) | 6.5792e-05 | TDB |
period | 1252.476186095083 3.43 | 5.5758e-06 1.527e-08 | d yr |
n | .287430614646968 | 1.2796e-09 | deg/d |
Q | 2.498282296068026 | 7.4146e-09 | au |
|
| | Orbit Determination Parameters
Additional Information
|